Location: ?????????
(41.8910°N, 44.5800°E)
Time: 21:16:14
(UTC+00:00)

Daily predictions for brighter satellites

Satellite Brightness Start Highest point End
(mag) Time Altitude Azimuth Time Altitude Azimuth Time Altitude Azimuth
SMAP 3.4 13:55:28 10° SE 13:59:51 43° ENE 14:04:16 10° N
FengYun 1-2 T 4.3 13:55:09 10° SSE 14:00:39 59° ENE 14:06:08 10° N
USA 307 4.0 13:59:01 10° W 14:03:00 37° NNW 14:07:00 10° NE
Meteor PRIRODA 3.6 14:00:24 10° SSE 14:04:03 87° E 14:07:42 10° NNW
Cosmos 1939 Rocket 3.1 14:00:12 10° SSE 14:04:10 49° ENE 14:08:10 10° N
Cosmos 1766 Rocket 3.6 14:00:54 10° N 14:05:15 86° W 14:09:36 10° S
Cosmos 1862 3.4 14:03:29 10° N 14:07:29 84° W 14:11:29 10° S
Cosmos 1606 2.6 14:04:06 10° S 14:07:49 71° E 14:11:35 10° NNE
ERBS 2.9 14:07:37 10° WSW 14:10:43 48° NW 14:13:51 10° NE
Cosmos 2221 2.5 14:07:05 10° S 14:11:17 63° E 14:15:31 10° NNE
ATLAS CENTAUR R/B 3.1 14:07:43 10° WSW 14:11:18 29° NW 14:15:10 10° NNE
Cosmos 44 3.9 14:07:09 10° NNW 14:11:28 32° NE 14:15:32 10° ESE
NOAA 12 4.2 14:09:01 10° SSE 14:14:21 87° WSW 14:19:43 10° NNW
CZ-4C R/B 4.2 14:10:16 10° NNW 14:14:37 17° NNE 14:19:21 10° ENE
CZ-2C R/B 3.6 14:12:57 10° NE 14:17:10 24° E 14:21:19 10° SSE
COSMO-SKYMED 1 3.8 14:16:00 10° NE 14:19:23 22° E 14:22:45 10° SE
ATLAS CENTAUR R/B 3.7 14:08:05 10° SSW 14:20:23 59° SE 14:25:05 12° NE
Okean O Rocket 2.8 14:21:38 10° ESE 14:25:00 22° ENE 14:28:22 10° NNE
USA 308 4.3 14:21:40 10° W 14:25:23 28° NNW 14:29:06 10° NE
Cosmos 1464 Rocket 4.1 14:19:23 10° S 14:25:45 85° W 14:32:11 10° N
BREEZE-M DEB (TANK) 4.2 14:15:53 10° WNW 14:26:40 90° SE 14:30:04 10° ESE
NOAA 6 4.0 14:26:10 10° SSE 14:31:19 89° ENE 14:36:29 10° NNW
ISS -1.6 14:35:17 10° NW 14:37:28 16° N 14:38:57 13° NNE
GEOS 3 Rocket 4.3 14:34:45 10° ESE 14:39:23 33° NE 14:43:59 10° NNW
USA 267 4.3 14:34:28 10° NE 14:40:18 36° NNW 14:46:07 10° W
Cosmos 1408 Rocket 3.8 14:39:51 10° NNW 14:44:10 70° W 14:48:31 10° S
Cosmos 1697 Rocket 3.2 14:39:08 10° N 14:44:15 34° ENE 14:49:19 10° ESE
Nadezhda 4 Rocket 4.0 14:38:12 10° N 14:44:32 90° W 14:50:53 10° S
Cosmos 2084 4.5 14:41:11 10° NNW 14:44:53 27° NE 14:46:30 21° ENE
Cosmos 1980 Rocket 3.4 14:41:42 10° N 14:45:51 20° NE 14:46:59 19° ENE
Cosmos 1763 Rocket 3.4 14:41:09 10° S 14:46:07 62° ESE 14:51:09 10° NNE
Cosmos 841 Rocket 4.4 14:43:30 10° SSE 14:47:48 27° E 14:49:53 21° ENE
Cosmos 1937 Rocket 4.2 14:43:14 10° N 14:47:57 31° ENE 14:52:38 10° ESE
Cosmos 1743 Rocket 3.4 14:44:14 10° N 14:48:33 67° E 14:52:50 10° SSE
CZ-4B DEB 4.3 14:43:35 10° SSE 14:49:07 85° WSW 14:54:40 10° NNW
Cosmos 1782 3.5 14:45:45 10° SSE 14:49:20 33° E 14:51:20 21° NE
Lacrosse 5 3.6 14:45:51 10° WNW 14:50:29 36° SW 14:55:07 10° S
Cosmos 1656 3.6 14:45:22 10° NNW 14:50:55 75° ENE 14:56:30 10° SSE
Cosmos 2082 Rocket 3.2 14:48:31 10° SSE 14:53:07 26° ESE 14:54:45 22° ENE
USA 229 DEB 4.1 14:46:16 10° NNW 14:53:24 50° NE 15:00:56 10° ESE
USA 229 4.1 14:46:22 10° NNW 14:53:29 50° NE 15:01:00 10° ESE
Cosmos 1092 Rocket 4.0 14:48:27 10° N 14:54:47 65° E 15:01:03 10° SSE
Cosmos 1809 Rocket 4.4 14:50:21 10° N 14:56:23 58° E 15:02:21 10° SSE
COSMOS 2406 3.5 14:52:28 10° S 14:57:58 48° ESE 15:01:49 19° NE
Cosmos 1812 4.2 14:58:57 10° SSE 15:00:47 21° ESE 15:00:47 21° ESE
Cosmos 1340 Rocket 3.1 14:58:41 10° NNW 15:02:43 69° W 15:06:46 10° S
Cosmos 990 Rocket 3.8 14:58:28 10° NNW 15:03:41 77° ENE 15:08:50 10° SSE
PAYLOAD B 4.3 14:58:55 10° SSE 15:04:31 81° WSW 15:10:10 10° NNW
Cosmos 1428 Rocket 4.3 15:01:23 10° N 15:07:31 70° E 15:13:38 10° SSE
SKYMED 2 3.4 15:03:23 10° NNE 15:07:39 73° ESE 15:11:59 10° S
Cosmos 1151 Rocket 4.0 15:04:10 10° SSE 15:07:04 28° ESE 15:07:04 28° ESE
Cosmos 1933 3.4 15:07:18 10° S 15:11:22 82° W 15:15:26 10° N
Cosmos 1627 Rocket 4.3 15:06:13 10° N 15:12:25 75° E 15:18:32 10° SSE
Meteor 1-26 Rocket 4.3 15:06:53 10° S 15:12:42 67° E 15:18:41 10° NNE
USA 234 4.3 15:06:53 10° SSE 15:13:05 45° SW 15:19:18 10° WNW
Cosmos 1602 3.5 15:09:39 10° N 15:13:30 79° E 15:17:21 10° S
SJ 16-02 4.1 15:11:51 10° NW 15:15:09 21° W 15:18:27 10° SSW
USA 276 3.4 15:13:32 10° NW 15:15:43 29° N 15:15:43 29° N
NOSS 3-1 (A) 4.1 15:09:21 10° NNW 15:16:59 73° NE 15:25:49 10° SE
Cosmos 1500 Rocket 4.4 15:14:37 10° NNW 15:18:58 51° W 15:23:13 10° S
NOSS 3-1 (C) 4.3 15:12:27 10° NW 15:20:09 75° WSW 15:29:01 10° SSE
Cosmos 2279 Rocket 4.0 15:18:41 10° S 15:24:45 57° E 15:30:49 10° NNE
Cosmos 1833 Rocket 2.7 15:20:32 10° SSW 15:26:07 78° WNW 15:30:07 20° NNE
CZ-4B R/B 3.4 15:24:06 10° S 15:29:34 71° WSW 15:34:58 10° NNW
Cosmos 1805 Rocket 3.8 15:25:31 10° NNW 15:29:50 68° W 15:34:07 10° S
Cosmos 2360 4.1 15:24:53 10° NNW 15:30:38 72° ENE 15:35:52 12° SSE
MOS 1-B Rocket 4.4 15:25:59 10° N 15:31:40 62° WNW 15:38:00 10° SSW
Meteor 1-14 Rocket 4.3 15:27:57 10° N 15:33:40 58° ENE 15:39:27 10° SSE
ARGOS 3.2 15:28:48 10° SSE 15:34:14 82° WSW 15:39:41 10° NNW
Cosmos 1814 Rocket 4.4 15:29:42 10° S 15:34:00 42° SE 15:34:00 42° SE
Cosmos 1634 Rocket 4.1 15:28:28 10° SSW 15:34:46 76° W 15:41:09 10° N
H-2A R/B 3.2 15:31:53 10° S 15:36:54 45° W 15:41:50 10° NNW
ATLAS 5 CENTAUR R/B 3.9 15:34:51 10° NNW 15:38:50 21° N 15:38:50 21° N
COSMOS 2455 2.7 15:35:06 10° SSW 15:41:04 71° ESE 15:42:41 49° NE
Sich 1 3.3 15:36:58 10° NNW 15:41:13 65° W 15:45:27 10° S
Cosmos 1898 Rocket 3.8 15:36:54 10° NNW 15:42:08 67° WSW 15:47:16 10° S
GPS 2-04 Rocket1 4.1 15:43:37 10° SW 15:46:40 29° S 15:46:40 29° S
Meteor 2-16 Rocket 4.3 15:43:51 10° N 15:50:00 81° E 15:56:07 10° S
Landsat 5 4.3 15:50:45 30° NNW 15:52:25 47° WNW 15:56:19 10° SW
Cosmos 540 Rocket 4.0 15:50:03 10° SW 15:55:02 55° WNW 15:57:11 32° N
COSMO-SKYMED 1 4.2 15:52:00 12° N 15:55:36 33° WNW 15:59:29 10° SW
SL-08 RB Rocket 4.0 15:51:03 10° S 15:55:41 67° WSW 16:00:19 10° NNW
CZ-2C R/B 3.7 15:52:44 10° N 15:57:36 41° WNW 16:02:24 10° SW
Okean O Rocket 3.1 15:56:59 10° SSW 16:01:05 37° W 16:05:15 10° NNW
Cosmos 2180 Rocket 4.4 15:55:22 10° S 16:01:45 85° E 16:04:44 34° N
CZ-4C R/B 3.2 15:57:52 10° NNW 16:04:35 49° NE 16:04:35 49° NE
Meteor 1-5 Rocket 4.5 16:09:20 10° NNW 16:15:19 73° W 16:21:13 10° S
GEOS 3 Rocket 4.4 16:15:44 38° SSW 16:17:14 50° WSW 16:22:18 10° NW
Cosmos 2369 4.0 16:14:18 10° NNW 16:19:58 65° WSW 16:20:20 63° SW
Cosmos 1697 Rocket 4.1 16:23:07 10° NW 16:28:10 35° WSW 16:33:12 10° S
Cosmos 1980 Rocket 3.0 16:24:46 10° NNW 16:28:49 47° NW 16:28:49 47° NW
Cosmos 2082 Rocket 3.1 16:31:26 10° SW 16:36:39 46° WNW 16:36:39 46° WNW
